STARLINK-1835 (46782 NORAD) Tracking and Keplerian Element Data

This shows tracking and keplerian element data for the satellite.

Feedback or suggestion? Click here.




ElementValue
Catalog46782
NameSTARLINK-1835
Epoch Orbit1359
Epoch Day18.00001157
Epoch Year2021
RAAN102.3966
Inclination53.054
Eccentricity0.0002606
Argument of Perigee11.2655
Mean Anonmoly242.002
Mean Motion15.62750364
Decay Rate0.00032803
L11 46782U 20074AV 21018.00001157 .00032803 00000-0 36266-3 0 9998
L22 46782 53.0540 102.3966 0002606 11.2655 242.0020 15.62750364 13594

Live tracking and technical data element details for STARLINK-1835 (NORAD 46782). STARLINK-1835 can be tracked NOW for your location showing map with azimuth and elevation plus other details from your city location.

Track the satellite on the map from your city or location and see movement details for azimuth, elevation, latitude, longitude, range, height, and movement on the map or in text.







IsCatalogInMostPopularTable: catalog: 46782, numindb: 27
Update: records affected: 1



GetName: 46782 STARLINK-1835

Hit Count: updated at: Mon, 18 Jan 2021 16:50:15 GMT